Location: *
(49.4547°N, 7.9131°E)
Time: 04:04:02
(UTC+00:00)

SPOT 3 Rocket - Pass Details

Date: 22 September 2019
Orbit: 780 x 794 km, 98.8° (Epoch: 23 October)

Event Time Altitude Azimuth Distance (km) Brightness Sun altitude
Exits shadow 18:09:17 - 133° (SE) 2,888 6.0 -7.6°
Reaches altitude 10° 18:10:47 10° 127° (SE) 2,332 5.5 -7.9°
Maximum altitude 18:15:23 35° 64° (ENE) 1,255 4.2 -8.6°
Drops below altitude 10° 18:20:02 10° 360° (N) 2,349 6.2 -9.4°
Sets 18:22:31 0° 352° (N) 3,283 7.1 -9.8°
